Zurück zum Katalog

STARLINK-11410

AktivKommunikationVLEO
NORAD 61946·PAYLOAD·🇺🇸 United States

Gestartet Nov 14, 2024 von Vandenberg Space Force Base

Loading…

Nächste Überflüge (nächste 24 Stunden)

TLE

AktuellSource: CelesTrak SupGP

Epoche: Sep 14, 2026, 13:59 UTC

1 61946C 24209H   26257.58312500  .00129560  00000+0  10668-2 0  2571
2 61946  53.1567 160.1960 0000959 103.1844 277.8909 15.69654912    13

Verfolge STARLINK-11410 in Echtzeit mit AllMySat

Download on the App Store